Location: Sweetwater (historical)
(38.4624°N, 119.1749°W)
Time: 12:20:20
(UTC+00:00)

Cosmos 1455 - Pass Details

Date: 13 August 2020
Orbit: 498 x 523 km, 82.5° (Epoch: 20 September)

Event Time Altitude Azimuth Distance (km) Brightness Sun altitude
Rises 12:08:57 0° 170° (S) 2,633 5.6 -11.7°
Reaches altitude 10° 12:11:09 10° 163° (SSE) 1,753 4.8 -11.3°
Maximum altitude 12:14:47 41° 93° (E) 768 3.6 -10.7°
Drops below altitude 10° 12:18:27 10° 22° (NNE) 1,769 5.7 -10.1°
Sets 12:20:40 0° 15° (NNE) 2,662 6.5 -9.7°
